Skip Page Navigation
NASA JPL Caltech
NASA Logo - Jet Propulsion Laboratory + View the NASA Portal
+ Center for Near-Earth Object Studies
JPL Home Earth Solar System Stars & Galaxies Technology
JPL Solar System Dynamics
BODIES ORBITS EPHEMERIDES TOOLS PHYSICAL DATA DISCOVERY FAQ SITE MAP

Significant website upgrade scheduled for September 27. More details available here.

JPL Small-Body Database Browser
Search: [ help ]  
5380 Sprigg (1991 JT)
Classification: Main-belt Asteroid          SPK-ID: 2005380
Ephemeris | Orbit Diagram | Orbital Elements | Mission Design | Physical Parameters | Discovery Circumstances | Close-Approach Data ]

[ hide orbit diagram ]

For accurate long-term ephemerides, please instead use our Horizons system.This orbit viewer was implemented using two-body methods, and hence should not be used for determining accurate long-term trajectories (over several years or decades) or planetary encounter circumstances.


Orbital Elements at Epoch 2459396.5 (2021-Jul-01.0) TDB
Reference: JPL 37 (heliocentric ecliptic J2000)
 Element Value Uncertainty (1-sigma)   Units 
e .2114802129097795 2.5792e-08  
a 2.579578685360624 9.2466e-09 au
q 2.03404883576303 6.9173e-08 au
i 9.299351864097549 6.24e-07 deg
node 242.246519420343 6.7661e-06 deg
peri 359.1078554237541 7.4093e-06 deg
M 74.65383193366816 2.8276e-06 deg
tp 2459082.686805065312
(2020-Aug-21.18680507)
1.0858e-05 TDB
period 1513.288028896719
4.14
8.1366e-06
2.228e-08
d
yr
n .2378925843102468 1.2791e-09 deg/d
Q 3.125108534958217 1.1202e-08 au
  Orbit Determination Parameters
   # obs. used (total)      2468  
   data-arc span      14909 days (40.82 yr)  
   first obs. used      1980-10-14  
   last obs. used      2021-08-09  
   planetary ephem.      DE441  
   SB-pert. ephem.      SB441-N16  
   condition code      0  
   norm. resid. RMS      .43998  
   source      ORB  
   producer      Otto Matic  
   solution date      2021-Aug-25 21:37:05  

Additional Information
 Earth MOID = 1.02174 au 
 Jupiter MOID = 1.89728 au 
 T_jup = 3.375 
[ show covariance matrix ]

Ephemeris | Orbit Diagram | Orbital Elements | Mission Design | Physical Parameters | Discovery Circumstances | Close-Approach Data ]

Physical Parameter Table
Parameter Symbol Value Units Sigma Reference Notes
absolute magnitude H 13.22   n/a MPO636145  
diameter diameter 6.606 km 0.290 urn:nasa:pds:neowise_diameters_albedos::2.0[mainbelt] (http://adsabs.harvard.edu/abs/2011ApJ...741...68M)  
rotation period rot_per 3.219 h n/a LCDB (Rev. 2020-October); Warner et al., 2009 Published Reference List:
[Clark, M. (2014) Minor Planet Bull. 41, 178-183.]
geometric albedo albedo 0.280   0.025 urn:nasa:pds:neowise_diameters_albedos::2.0[mainbelt] (http://adsabs.harvard.edu/abs/2011ApJ...741...68M)  

5380 Sprigg           Discovered 1991 May 7 by R. H. McNaught at Siding Spring.
Named for Reginald C. Sprigg (1919-1994), Australian exploration geologist, oceanographer, biologist, author and conservationist who in 1946 discovered the diverse pre-Cambrian Ediacaran soft-body fauna fossils representing the earliest known multicellular life on the earth. Sprigg's recognition of hydrocarbons in central Australia led to the discovery of the vast Cooper Basin gas and oil fields. His work on the formation of Australian deserts and dunes has resulted in greater understanding of present-day climate patterns. In 1968 he founded the Arkaroola Wilderness Sanctuary in the northern Flinders Ranges, and this includes an astronomical observatory. Name suggested by D. I. Steel and citation prepared by the Sprigg family.
NOTE: some special characters may not display properly (any characters within {} are an attempt to place the proper accent above a character)
Reference: 19980411/MPCPages.arcLast Updated: 2009-11-17

[ show close-approach data ]
Alternate Designations
 1991 JT = 1983 JN = 1983 LA1 
Ephemeris | Orbit Diagram | Orbital Elements | Mission Design | Physical Parameters | Discovery Circumstances | Close-Approach Data ]
ABOUT SSD CREDITS/AWARDS PRIVACY/COPYRIGHT GLOSSARY LINKS
FirstGov 2021-Sep-21 18:40 UT
(server date/time)  
NASA Home Page
Site Manager:   Ryan S. Park
Webmaster  Alan B. Chamberlin